Regional Weather Roundup
Issued by NWS Upton, NY

Home | Current Version | Previous Version | Text Only | Print | Product List | Glossary On
Versions: 1 2 3 4 5 6 7 8 9 10 11 12 13 14 15 16 17 18 19 20 21 22 23 24 25 26 27 28 29 30 31 32 33 34 35 36 37 38 39 40 41 42 43 44 45 46 47 48 49 50
000
ASUS41 KOKX 272008
RWROKX

REGIONAL WEATHER ROUNDUP
NATIONAL WEATHER SERVICE NEW YORK NY
400 PM EDT MON MAR 27 2017

NOTE: "FAIR" INDICATES FEW OR NO CLOUDS BELOW 12,000 FEET WITH NO
SIGNIFICANT WEATHER AND/OR OBSTRUCTIONS TO VISIBILITY.

NYZ071-072-176-178-NJZ106-104-272100-
NEW YORK CITY METRO AREA

CITY           SKY/WX    TMP DP  RH WIND       PRES   REMARKS
Central Park   LGT RAIN  52  46  80 CALM      30.02F
Wall St Helipt CLOUDY    52  45  76 VRB5      30.01F
LaGuardia APRT CLOUDY    49  42  77 NE9       30.00F
Kennedy INTL   CLOUDY    57  50  77 W12       30.01F
Breezy Point     N/A     54 N/A N/A W5          N/A
Newark/Liberty LGT RAIN  53  48  83 SW7       29.99F
Teterboro      CLOUDY    50  45  83 CALM      29.99F FOG
$$

NYZ177-179-078>081-272100-
LONG ISLAND NEW YORK

CITY           SKY/WX    TMP DP  RH WIND       PRES   REMARKS
Jones Beach      N/A     48 N/A N/A S3          N/A
Matinecock PT  NOT AVBL
Farmingdale    CLOUDY    54  48  80 N7        30.00F
MacArthur/ISP  CLOUDY    50  47  89 N9        30.00F
Shirley        CLOUDY    50  48  93 N9        30.01F
Westhampton    CLOUDY    51  47  86 N9        30.02S
East Hampton   CLOUDY    49  48  93 CALM      30.00S
Montauk          N/A     48  46  93 S5        30.01F
$$

NYZ052-065-067-272100-
HUDSON VALLEY

CITY           SKY/WX    TMP DP  RH WIND       PRES   REMARKS
White Plains   CLOUDY    47  43  86 NW5       29.99F FOG
Newburgh       LGT RAIN  43  43 100 CALM      30.01F FOG
Montgomery     CLOUDY    45  41  86 VRB3      29.99F
Poughkeepsie   CLOUDY    45  41  86 W5        30.00F
Albany         CLOUDY    45  38  76 S8        29.99F
$$

NJZ001-105-106-008-010-013-015-019>022-104-272100-
NEW JERSEY

CITY           SKY/WX    TMP DP  RH WIND       PRES   REMARKS
Newark/Liberty LGT RAIN  53  48  83 SW7       29.99F
Teterboro      CLOUDY    50  45  83 CALM      29.99F FOG
Caldwell       CLOUDY    51  46  83 CALM      30.00F
Somerville     CLOUDY    53  48  83 CALM      29.98F
Linden         CLOUDY    54  48  80 W6        30.00F
Sussex         CLOUDY    46  44  93 VRB3      29.99F
Andover          N/A     50  45  83 CALM      29.99F
Trenton        CLOUDY    54  50  86 CALM      30.00F
Millville      MOSUNNY   70  59  68 W8        29.99F
Atlantic City  MOSUNNY   70  57  63 SW7       29.98F
Wrightstown    CLOUDY    59  53  82 NW8       29.97F
Toms River     CLOUDY    63  57  81 W8        30.00F
Belmar         CLOUDY    58  54  86 W9        30.01F
$$

PAZ047>061-062-071-272100-
EASTERN PENNSYLVANIA

CITY           SKY/WX    TMP DP  RH WIND       PRES   REMARKS
Philadelphia   CLOUDY    57  51  80 SW7       30.01F
Allentown      CLOUDY    52  46  80 S7        29.99F
Scranton       CLOUDY    55  48  77 SW10      29.96F
$$

CTZ002-004>006-009-010-012-RIZ004-006-007-MAZ004-011-015-272100-
SOUTHERN NEW ENGLAND
 IN CT

CITY           SKY/WX    TMP DP  RH WIND       PRES   REMARKS
Bradley INTL   CLOUDY    40  38  93 N8        30.02F WCI  34
Hartford       CLOUDY    40  38  93 N5        30.03F
Danbury        CLOUDY    43  43 100 CALM      30.01F FOG
Wtrbury/Oxford FOG       43  39  87 CALM      30.01F VSB 1/2
Bridgeport     CLOUDY    47  44  90 E5        30.01F FOG
Meriden        CLOUDY    42  38  85 E5        30.02F
New Haven      CLOUDY    43  41  93 N7        30.01F
Chester        NOT AVBL
Groton         CLOUDY    53  49  86 NW8       30.00F
Wilimantic     LGT RAIN  46  44  93 CALM      30.01F

 IN RI

CITY           SKY/WX    TMP DP  RH WIND       PRES   REMARKS
Providence     CLOUDY    47  44  90 NE6       30.00F FOG
Block Island   CLOUDY    47  46  97 SW16      30.01F
Westerly       CLOUDY    51  51 100 SW3       30.00F
 IN MA

CITY           SKY/WX    TMP DP  RH WIND       PRES   REMARKS
Boston         CLOUDY    44  42  93 NW6       30.02F
Worcester      FOG       37  36  96 NE7       29.99F VSB 1/4 WCI  32
Westfield      CLOUDY    40  39  97 N6        30.02F
Provincetown   LGT RAIN  45  45 100 S15       30.00F FOG
Nantucket      FOG       46  45  96 S17       30.03F VSB 1/4
$$

ANZ330-335-338-340-345-350-353-355-272100-
COASTAL MARINE OBSERVATIONS


STATION/POSITION TIME  SKY/WX   TEMP    WIND        PRES    VSBY  WAVE
                                AIR SEA DIR/SP/G                  HT/PER
                 (UTC)          (F)     (DEG/KT/KT) (MB)    (MI)  (FT/S)
NY HARB ENTRANCE 1850            45 44   CALM  /  2 1016.9          3/ 7
20 S FIRE ISLAND 1950            44 41   CALM  /  2 1016.1          4/ 7
GREAT SOUTH BAY  NOT AVBL
23 SSW MONTAUK P 1850            46 43              1017.3          3/ 6
15 E BARNEGAT LI 1930               44                N/A           4/ 7
HUDSON CANYON    1850            49 45  200/ 10/ 12 1017.5          4/ 7
KINGS POINT      1948            41 39              1015.9
EXECUTION ROCKS  NOT AVBL
CENTRAL LI SOUND 1915            42     310/  4/  6   N/A           0
EASTERN LI SOUND NOT AVBL
ROBBINS REEF     1948            50      CALM  /  1 1016.1
$$


>>>>>>>>>>>>>>>>>>>>>>>>>>>> KEY <<<<<<<<<<<<<<<<<<<<<<<<<<<
>                                                          <
>     SKY/WX - Sky Condition/Present Weather               <
>     TMP    - Temperature in Fahrenheit                   <
>     DP     - Dew Point in Fahrenheit                     <
>     RH     - Relative Humidity in Percent                <
>     WIND   - Direction (from) and Speed in MPH           <
>     PRES   - Mean Sea Level Pressure (inches of Hg)      <
>     WCI    - Wind Chill Index                            <
>     VSB    - VISIBILITY IN MILES                         <
>     HX     - HEAT INDEX                                  <
>     TC     - TEMPERATURE IN CELSIUS                      <
>     VRB    - VARIABLE WIND DIRECTION                     <
>                                                          <
>>>>>>>>>>>>>>>>>>>>>>>>>>>> KEY <<<<<<<<<<<<<<<<<<<<<<<<<<<



USA.gov is the U.S. government's official web portal to all federal, state and local government web resources and services.